Cap Theodora — SVAM5 — position and weather

sailwx.info

Track history (hours):
 
Tides and Currents Weather Stations Pressure Air Temp Water Temp Dewpoint Dewpoint Depression Visibility Wind Speed Wind Dir Waves Ship Positions

Cap Theodora

Last reported at 2014-Oct-21 09:32 UTC. Time now 2014-Oct-21 10:34 UTC.
Position N 38°41' W 012°11'.

Length 274 m; draft 9.2 m.

Type: Tanker. MMSI: 240840000.

Date/timePositionNaut miles runAvg speedWind from/ knotsBaromVisibWave heightAir tempDewpointWater temp
2014-Oct-21 09:32N 38°41' W 012°11'2612.5
2014-Oct-21 07:28N 39°06' W 012°02'1111.6
2014-Oct-21 06:33N 39°16' W 011°58'1311.7
2014-Oct-21 05:26N 39°29' W 011°54'1511.3
2014-Oct-21 04:08N 39°43' W 011°49'2011.1
2014-Oct-21 02:19N 40°02' W 011°42'1110.9
2014-Oct-21 01:20N 40°13' W 011°38'  
2014-Oct-14 06:18N 38°07' W 009°46'1714.5
2014-Oct-14 05:09N 37°51' W 009°42'914.7
2014-Oct-14 04:32N 37°42' W 009°39'  
2014-Oct-11 11:03N 36°08' W 001°19'  
Track history (hours):
 
Tides and Currents Weather Stations Pressure Air Temp Water Temp Dewpoint Dewpoint Depression Visibility Wind Speed Wind Dir Waves Ship Positions

Cap Theodora

Last reported at 2014-Oct-21 09:32 UTC. Time now 2014-Oct-21 10:34 UTC.
Position N 38°41' W 012°11'.

Length 274 m; draft 9.2 m.

Type: Tanker. MMSI: 240840000.

Date/timePositionNaut miles runAvg speedWind from/ knotsBaromVisibWave heightAir tempDewpointWater temp
2014-Oct-21 09:32N 38°41' W 012°11'2612.5
2014-Oct-21 07:28N 39°06' W 012°02'1111.6
2014-Oct-21 06:33N 39°16' W 011°58'1311.7
2014-Oct-21 05:26N 39°29' W 011°54'1511.3
2014-Oct-21 04:08N 39°43' W 011°49'2011.1
2014-Oct-21 02:19N 40°02' W 011°42'1110.9
2014-Oct-21 01:20N 40°13' W 011°38'  
2014-Oct-14 06:18N 38°07' W 009°46'1714.5
2014-Oct-14 05:09N 37°51' W 009°42'914.7
2014-Oct-14 04:32N 37°42' W 009°39'  
2014-Oct-11 11:03N 36°08' W 001°19'  

Dump ship's entire track history